Regional Weather Roundup
Issued by NWS Green Bay, WI

Home | Current Version | Previous Version | Graphics & Text | Print | Product List | Glossary Off
Versions: 1 2 3 4 5 6 7 8 9 10 11 12 13 14 15 16 17 18 19 20 21 22 23 24 25 26 27 28 29 30 31 32 33 34 35 36 37 38 39 40 41 42 43 44 45 46 47 48 49 50

000
ASUS43 KGRB 250310
RWRGRB

NORTH-CENTRAL AND NORTHEAST WISCONSIN REGIONAL WEATHER ROUNDUP
NATIONAL WEATHER SERVICE GREEN BAY WI
1000 PM CDT FRI OCT 24 2014

WIZ005-009-010>012-018-019-250400-
NORTH CENTRAL WISCONSIN

CITY           SKY/WX    TMP DP  RH WIND       PRES   REMARKS
IRONWOOD       CLEAR     55  52  88 SW15      29.74F
MANITOWISH WTR CLOUDY    54  51  90 SW9       29.81S
ARBOR VITAE    CLOUDY    57  53  87 SW6       29.82S
EAGLE RIVER    CLOUDY    54  47  78 SW9       29.82R
LAND O LAKES   CLOUDY    55  50  81 SW9G17    29.81S
RHINELANDER    CLOUDY    53  49  86 SW10      29.84S
PHILLIPS       CLOUDY    55  52  91 SW9       29.83S
ANTIGO         CLOUDY    52  50  92 SW7       29.84F
TOMAHAWK       CLOUDY    54  51  90 SW3       29.85R
MERRILL        CLOUDY    55  53  92 SW8       29.84F
$$

WIZ013-073-250400-
NORTHEAST WISCONSIN

CITY           SKY/WX    TMP DP  RH WIND       PRES   REMARKS
IRON MOUNTAIN  CLOUDY    50  47  89 SE5       29.79F
MARINETTE      PTCLDY    52  46  82 SW9       29.83F
OCONTO         CLOUDY    51  51 100 S3        29.85F
$$

WIZ017-030-035>037-045-250400-
CENTRAL WISCONSIN

CITY           SKY/WX    TMP DP  RH WIND       PRES   REMARKS
MEDFORD        CLOUDY    54  53  97 W9        29.86S FOG
WAUSAU         CLOUDY    55  51  86 SW5       29.85S
MOSINEE        CLOUDY    55  54  94 SW8       29.87F
MARSHFIELD     CLOUDY    58  55  90 W12       29.87S
WISC RAPIDS    CLOUDY    57  54  89 SW6       29.89F
STEVENS POINT  CLOUDY    54  52  92 SW7       29.87F
WAUPACA        CLOUDY    58  54  84 SW9       29.88S
SHAWANO        CLOUDY    53  50  89 SW5       29.86F
CLINTONVILLE   CLOUDY    52  50  93 CALM      29.86F
$$

WIZ038-039-048-051-250400-
FOX VALLEY

CITY           SKY/WX    TMP DP  RH WIND       PRES   REMARKS
NWS GREEN BAY  CLOUDY    53  50  89 S5        29.86F
APPLETON       CLOUDY    54  52  94 S5        29.88F
OSHKOSH        CLOUDY    55  51  86 S9        29.88S
FOND DU LAC    CLOUDY    57  49  74 SW10      29.89F
$$

WIZ022-050-052-250400-
EAST CENTRAL WISCONSIN

CITY           SKY/WX    TMP DP  RH WIND       PRES   REMARKS
STURGEON BAY   CLOUDY    50  48  93 S9        29.87F
MANITOWOC      CLOUDY    52  51  97 S6        29.89S
SHEBOYGAN      CLOUDY    53  50  89 S6        29.90F
$$

LMZ563-521-522-541>543-250400-
LAKESHORE

STATION/POSITION TIME  TEMP    WIND        PRES    VSBY  WAVE
                       AIR SEA DIR/SP/G                  HT/PER
                 (UTC) (F)     (DEG/KT/KT) (MB)    (MI)  (FT/S)
SHEBOYGAN LKSHOR 0300   53 51  190/ 11/ 12 1012.7F
KEWAUNEE LKSHORE 0300   51     180/  9/ 10 1011.1F
ALGOMA MARINA    0200          220/ 20/ 23   N/A
TWO RIVERS CG    0300   51                 1014.1
NORTHPORT PIER   0300   49     170/  6/ 10 1010.8F
N MID LAKE BUOY  0300   49 51  210/ 19/ 25 1010.8F         4/ 5
SISTER BAY LKSHO 0300          170/  8/ 11   N/A
CHAMBERS ISLAND  0300   50     170/  4/ 12 1010.8F
MENOMINEE LKSHOR 0300   51     180/ 10/ 13 1011.1F
$$



USA.gov is the U.S. government's official web portal to all federal, state and local government web resources and services.